Temp
9 9 9 10 10 11 11 11 11 12 12 12 12 13 13 13 15 14 14 17 18 18 18 18 17 18 20 21 23 24 26 26 28 29 29 30 29 27 28 27 25 25 25 22 20
8 9 9 9 9 10 10 10 11 11 12 11 12 12 12 12 14 14 18 18 18 18 18 19 19 20 21 22 23 25 25 27 29 30 29 30 29 27 26 27 25 24 22 20 20
8 8 8 9 10 10 10 10 10 11 11 11 11 11 12 11 11 19 19 18 18 18 17 20 21 21 22 23 24 25 25 28 29 29 28 29 28 26 26 27 26 24 22 19 19
7 8 8 9 9 10 10 10 10 10 10 10 11 11 11 11 18 18 18 17 17 17 16 19 21 22 24 24 24 25 26 26 28 28 27 28 28 28 26 27 26 24 22 19 19
7 7 8 8 9 10 10 9 10 11 11 11 10 10 10 11 13 16 17 17 17 17 17 19 21 22 23 25 25 25 26 26 26 27 27 27 28 28 26 25 25 25 22 20 20
6 7 7 8 9 9 9 9 10 10 11 11 11 10 8 12 16 16 15 16 15 15 17 19 21 22 23 25 25 25 26 26 26 26 27 26 27 27 27 25 25 24 21 20 20
7 7 7 8 9 9 9 8 9 11 11 11 10 9 8 12 15 15 14 15 16 17 19 20 21 22 22 23 24 24 25 25 26 26 27 26 26 27 27 26 25 24 21 20 20
7 7 7 8 9 9 9 9 10 10 9 9 8 6 10 13 13 13 14 15 16 17 18 20 20 20 22 23 23 24 24 24 26 26 26 26 25 27 27 27 25 25 22 21 19
7 7 7 8 8 8 8 9 9 8 7 7 6 6 12 12 12 13 13 15 16 17 18 18 19 20 21 22 22 23 23 23 25 27 26 26 25 28 27 27 26 25 24 22 20
7 7 7 7 7 7 7 8 7 7 7 7 7 8 11 14 13 13 14 14 16 16 17 17 19 21 22 22 21 23 23 25 25 27 26 26 25 27 28 29 27 26 24 23 21
6 7 7 7 7 6 6 8 8 10 7 8 10 11 11 12 13 13 14 15 16 17 18 18 19 20 21 23 24 25 25 25 26 27 25 25 26 27 28 28 28 27 25 23 23
6 7 7 6 6 5 6 5 4 3 5 8 9 10 11 10 10 12 14 15 16 18 19 20 19 21 23 23 23 24 24 25 26 26 24 25 25 27 28 28 27 27 26 23 23
7 7 7 6 6 5 6 4 4 3 6 10 11 11 11 12 12 12 14 15 17 17 19 19 21 22 22 22 23 23 23 24 24 25 24 24 25 26 27 27 28 27 26 24 22
6 6 6 7 6 5 7 4 3 3 9 13 12 11 11 11 13 14 13 16 17 18 19 20 22 22 21 22 23 21 24 24 24 23 22 24 22 25 26 27 28 27 26 26 23
5 6 6 5 3 6 4 4 3 2 9 12 12 10 8 12 13 14 15 15 17 18 19 19 20 21 21 22 23 22 24 23 23 23 23 24 23 25 26 26 27 27 25 25 24
5 5 5 4 4 4 5 5 3 8 8 11 11 10 7 8 12 13 15 15 17 18 19 20 22 21 21 22 22 22 23 22 22 22 20 23 23 24 27 26 27 27 26 24 24
5 5 4 3 3 6 6 5 9 6 10 9 9 9 7 4 8 13 14 13 11 13 16 19 20 21 21 20 21 22 21 19 19 20 20 24 23 24 23 24 25 26 27 25 23
5 4 4 3 5 6 5 11 5 7 7 9 9 9 6 4 5 8 11 10 9 8 11 17 17 19 20 20 20 20 20 20 18 19 21 24 22 24 22 21 21 20 20 21 23
5 4 5 5 6 6 8 5 5 6 7 7 9 7 7 6 5 5 5 5 5 5 4 11 17 20 20 20 21 20 20 22 22 22 22 23 21 20 20 20 20 19 18 17 17
4 6 4 5 6 7 8 5 6 6 7 7 6 7 6 6 5 4 2 1 2 3 3 8 10 18 20 20 21 21 21 20 22 19 19 23 22 22 19 19 18 18 16 16 15
5 7 3 4 5 6 4 5 6 6 6 6 6 6 7 6 5 3 2 1 1 1 3 4 7 13 18 17 18 20 19 20 21 21 20 21 22 24 20 19 17 16 15 14 14
5 5 2 3 4 5 4 5 4 5 5 6 6 6 6 7 6 5 4 4 3 1 0 1 2 7 11 16 17 18 19 20 20 19 21 22 17 21 18 17 16 14 13 13 13
4 4 3 4 2 3 6 6 5 5 5 5 5 5 6 6 5 6 6 5 5 4 1 -0 2 6 12 14 15 16 17 16 18 20 19 20 18 17 16 16 15 14 12 12 12
3 2 2 2 3 5 5 4 5 4 4 4 5 5 5 5 6 5 5 5 5 4 3 2 1 2 3 2 4 9 13 13 14 16 18 19 16 15 15 14 14 13 12 11 11
1 1 1 3 2 4 4 4 4 3 4 4 4 4 4 4 4 5 5 5 5 3 5 4 2 2 1 2 3 4 8 10 12 15 16 19 18 16 15 14 13 11 11 10 10
-0 -1 -0 3 3 4 4 4 3 3 4 3 3 4 4 4 4 3 3 4 3 5 4 5 3 4 4 4 4 3 6 8 10 12 14 15 14 16 13 11 11 10 10 9 9
-2 -1 -0 1 4 4 4 3 3 3 3 3 3 3 3 4 2 2 2 3 4 4 4 4 4 4 4 5 4 3 5 7 9 11 12 13 12 12 12 11 10 9 9 8 8
Height
1517 1513 1509 1506 1502 1498 1495 1491 1487 1484 1481 1478 1476 1474 1472 1469 1468 1467 1461 1464 1465 1465 1467 1472 1472 1473 1475 1474 1472 1469 1462 1453 1444 1438 1438 1436 1446 1449 1449 1449 1457 1462 1462 1466 1475
1517 1512 1508 1504 1500 1496 1492 1488 1484 1481 1478 1476 1474 1471 1469 1466 1463 1457 1456 1456 1459 1461 1463 1467 1468 1469 1468 1467 1465 1462 1457 1446 1437 1431 1434 1434 1442 1446 1453 1450 1458 1462 1467 1470 1475
1517 1512 1507 1503 1498 1494 1490 1485 1481 1478 1475 1473 1470 1469 1468 1465 1462 1450 1447 1449 1451 1455 1459 1463 1464 1464 1462 1460 1457 1455 1450 1441 1437 1432 1438 1436 1442 1446 1450 1447 1453 1461 1466 1470 1474
1517 1512 1506 1500 1495 1491 1487 1483 1479 1475 1472 1469 1467 1465 1465 1467 1458 1446 1446 1446 1447 1449 1455 1458 1458 1456 1455 1450 1450 1448 1445 1444 1435 1434 1440 1441 1437 1442 1448 1446 1450 1458 1463 1470 1473
1515 1510 1504 1499 1494 1489 1484 1480 1476 1472 1469 1466 1463 1462 1462 1462 1449 1449 1447 1444 1444 1445 1449 1451 1451 1450 1446 1445 1444 1442 1441 1440 1438 1434 1437 1442 1437 1439 1444 1449 1451 1454 1459 1467 1472
1513 1507 1501 1496 1491 1487 1482 1477 1472 1468 1464 1461 1459 1458 1459 1455 1447 1446 1445 1443 1443 1444 1446 1447 1446 1446 1443 1440 1437 1437 1437 1437 1434 1434 1433 1439 1437 1438 1440 1447 1450 1453 1458 1464 1469
1512 1506 1500 1494 1488 1483 1479 1474 1470 1464 1460 1457 1455 1454 1455 1441 1444 1443 1442 1442 1443 1443 1443 1443 1444 1443 1442 1439 1437 1436 1434 1433 1430 1429 1430 1437 1435 1431 1435 1440 1446 1450 1457 1462 1466
1512 1506 1499 1493 1488 1482 1476 1471 1465 1460 1456 1454 1453 1451 1444 1438 1437 1435 1439 1439 1440 1441 1441 1442 1443 1442 1439 1437 1436 1434 1434 1432 1421 1425 1428 1431 1431 1426 1429 1434 1441 1445 1453 1459 1463
1511 1505 1499 1492 1486 1480 1475 1468 1462 1457 1454 1453 1453 1455 1440 1433 1432 1431 1432 1433 1436 1438 1439 1440 1441 1440 1439 1434 1434 1427 1424 1424 1418 1414 1422 1424 1425 1416 1421 1425 1431 1439 1446 1454 1460
1510 1504 1497 1491 1484 1478 1472 1465 1460 1456 1456 1453 1454 1455 1436 1433 1431 1430 1429 1428 1430 1434 1436 1436 1434 1431 1427 1425 1421 1415 1420 1408 1410 1404 1413 1417 1419 1416 1412 1412 1424 1431 1440 1445 1453
1509 1502 1496 1490 1484 1478 1471 1468 1467 1460 1460 1458 1452 1445 1438 1433 1431 1427 1425 1424 1425 1426 1421 1424 1425 1413 1409 1410 1408 1397 1400 1405 1395 1396 1407 1414 1412 1411 1410 1408 1415 1423 1432 1440 1446
1508 1501 1495 1490 1484 1479 1479 1476 1480 1478 1459 1449 1445 1442 1436 1432 1426 1424 1422 1419 1418 1409 1416 1415 1404 1400 1406 1405 1406 1401 1399 1396 1393 1394 1409 1408 1409 1404 1404 1403 1409 1415 1422 1436 1443
1507 1501 1494 1490 1485 1484 1483 1481 1478 1475 1468 1445 1444 1441 1435 1430 1422 1415 1415 1411 1408 1406 1400 1396 1390 1400 1398 1399 1400 1400 1402 1399 1398 1398 1409 1411 1406 1400 1398 1401 1403 1410 1414 1425 1437
1507 1501 1494 1489 1487 1484 1484 1480 1476 1472 1456 1441 1440 1441 1435 1425 1413 1407 1407 1406 1403 1397 1395 1390 1388 1390 1393 1393 1393 1402 1396 1396 1396 1403 1412 1407 1414 1395 1393 1394 1394 1404 1409 1414 1427
1508 1502 1496 1488 1490 1488 1485 1478 1475 1474 1452 1453 1448 1448 1440 1425 1413 1401 1397 1401 1394 1390 1392 1381 1384 1385 1389 1385 1390 1395 1392 1400 1402 1402 1406 1394 1407 1386 1383 1390 1388 1400 1410 1413 1419
1510 1504 1498 1495 1493 1489 1482 1478 1477 1467 1456 1453 1455 1451 1450 1438 1420 1406 1399 1402 1395 1389 1384 1380 1377 1380 1385 1385 1391 1395 1393 1400 1403 1403 1414 1395 1398 1388 1372 1378 1386 1391 1400 1411 1416
1512 1506 1500 1498 1493 1486 1481 1479 1470 1482 1472 1467 1459 1456 1460 1457 1436 1413 1401 1410 1416 1406 1389 1379 1373 1379 1382 1388 1388 1389 1396 1411 1413 1408 1399 1383 1392 1384 1384 1384 1388 1391 1392 1403 1413
1514 1508 1506 1500 1493 1487 1483 1473 1489 1486 1483 1479 1468 1456 1462 1466 1454 1441 1421 1423 1436 1433 1410 1381 1385 1375 1378 1378 1380 1384 1388 1389 1405 1399 1387 1376 1388 1378 1391 1397 1399 1405 1408 1409 1412
1514 1513 1507 1500 1495 1490 1485 1492 1499 1494 1490 1480 1465 1463 1461 1467 1467 1459 1459 1459 1457 1458 1454 1411 1373 1367 1373 1379 1374 1380 1382 1370 1376 1371 1379 1369 1384 1394 1398 1402 1404 1412 1419 1422 1422
1516 1515 1511 1505 1499 1495 1495 1498 1500 1501 1494 1485 1478 1470 1467 1466 1471 1468 1475 1479 1473 1469 1466 1440 1418 1369 1369 1376 1373 1370 1375 1386 1372 1391 1389 1363 1372 1379 1400 1404 1409 1417 1423 1426 1427
1521 1516 1516 1508 1505 1503 1504 1503 1504 1503 1498 1493 1487 1477 1474 1472 1472 1478 1480 1482 1481 1474 1467 1458 1441 1397 1376 1381 1376 1374 1380 1375 1370 1373 1378 1375 1362 1355 1388 1402 1412 1421 1426 1428 1429
1525 1523 1521 1514 1513 1512 1512 1510 1511 1506 1502 1498 1494 1488 1483 1475 1472 1476 1478 1479 1481 1482 1478 1474 1464 1434 1411 1386 1385 1379 1374 1372 1374 1374 1369 1363 1395 1376 1391 1407 1419 1427 1430 1432 1433
1530 1528 1525 1520 1521 1520 1512 1511 1511 1509 1505 1502 1497 1495 1491 1481 1479 1474 1476 1480 1479 1478 1484 1484 1467 1441 1400 1399 1394 1390 1382 1385 1376 1368 1370 1374 1386 1397 1408 1414 1421 1429 1434 1436 1437
1534 1533 1530 1527 1525 1521 1516 1514 1511 1512 1509 1505 1501 1499 1494 1487 1480 1477 1478 1480 1478 1478 1481 1481 1479 1472 1465 1466 1459 1424 1406 1403 1398 1384 1375 1368 1387 1401 1411 1419 1424 1430 1435 1438 1439
1541 1540 1539 1530 1529 1525 1524 1519 1514 1514 1513 1506 1504 1502 1499 1492 1485 1477 1479 1480 1477 1477 1475 1476 1475 1473 1472 1468 1460 1454 1433 1419 1409 1393 1384 1370 1375 1391 1405 1417 1426 1431 1436 1439 1441
1547 1547 1542 1532 1530 1524 1521 1520 1518 1517 1516 1511 1509 1505 1501 1494 1490 1489 1488 1484 1482 1475 1474 1472 1467 1461 1457 1458 1457 1455 1442 1431 1419 1407 1396 1390 1393 1389 1412 1422 1428 1432 1436 1440 1443
1551 1550 1545 1537 1529 1525 1524 1523 1520 1518 1515 1513 1511 1507 1500 1496 1498 1495 1492 1487 1482 1477 1474 1470 1465 1460 1451 1447 1451 1449 1437 1428 1424 1413 1409 1402 1408 1416 1419 1424 1429 1435 1439 1441 1443
Wind_Speed
25 24 23 23 22 21 20 21 21 21 22 22 21 21 20 21 23 21 27 21 14 13 15 10 19 22 20 25 26 24 16 19 23 19 16 11 10 10 10 10 11 8 4 20 29
28 28 27 27 25 24 23 22 20 21 21 21 22 23 21 20 22 29 30 27 20 18 16 19 21 22 25 26 28 19 17 25 22 17 8 8 15 14 7 11 11 10 8 25 30
29 29 29 28 28 26 24 23 22 21 20 21 21 21 20 19 19 15 15 22 23 25 22 20 18 22 25 23 30 26 23 22 26 23 9 14 12 7 12 14 16 16 17 26 31
29 30 30 30 30 28 25 24 24 22 21 20 20 20 18 12 7 4 10 11 14 25 23 24 25 25 20 24 27 26 26 30 28 22 14 18 13 16 11 7 10 15 20 25 30
33 32 32 30 28 28 27 26 25 24 23 23 22 19 14 12 27 20 17 9 12 22 27 29 30 28 24 23 26 23 25 29 28 29 21 22 19 13 16 14 7 11 23 26 28
37 37 36 34 31 29 26 26 27 26 26 23 20 18 11 19 13 13 14 15 11 20 24 28 26 28 23 25 20 25 24 24 28 29 21 18 22 18 18 14 13 14 22 26 28
38 37 36 36 35 33 29 28 28 27 24 21 17 13 16 30 10 7 11 18 17 20 22 24 24 21 25 14 28 21 18 17 26 22 25 22 22 24 20 19 19 17 21 25 27
36 36 34 33 32 30 29 31 30 24 22 18 12 6 13 10 13 23 18 16 22 22 23 20 21 20 24 18 9 21 20 21 22 24 20 24 25 24 24 23 20 20 21 24 27
36 35 33 32 31 28 30 26 22 24 19 12 5 6 13 9 10 13 19 24 21 23 23 19 20 24 24 18 14 16 18 25 23 26 22 25 22 22 31 29 22 23 24 26 27
37 35 33 32 30 30 29 26 21 12 15 13 8 9 13 8 13 15 14 24 22 24 25 22 19 17 19 18 20 23 23 20 23 21 23 25 25 22 28 32 22 24 22 27 30
37 35 32 31 26 29 29 19 22 6 24 14 27 31 39 38 28 19 16 19 27 28 26 31 19 25 30 27 24 21 21 23 18 14 23 22 24 23 25 26 24 24 24 24 30
36 34 31 32 23 28 19 22 15 13 16 27 23 19 19 19 28 26 18 20 28 28 27 21 30 30 26 26 27 27 18 18 17 13 11 16 22 25 24 25 25 27 27 26 26
35 32 29 30 19 20 14 20 16 11 8 16 11 12 16 19 19 30 25 26 23 27 30 31 28 26 26 27 26 26 21 20 19 13 13 15 20 23 26 28 30 30 28 30 30
33 31 31 30 10 20 12 22 15 9 6 14 20 14 32 44 14 14 28 25 26 31 31 32 29 24 28 27 24 25 22 19 16 12 15 20 14 19 21 23 25 25 22 27 31
26 32 31 29 15 18 21 20 12 4 5 17 21 28 32 27 20 11 13 22 23 26 19 31 30 25 26 27 23 22 20 19 19 16 16 18 14 16 25 25 21 23 24 24 29
24 28 29 21 16 18 20 16 6 4 5 16 27 25 24 26 22 18 7 11 14 24 22 29 25 23 22 20 22 20 18 15 18 14 15 24 16 14 18 24 23 23 30 22 23
22 26 33 17 23 21 17 9 3 6 18 20 29 17 19 22 20 21 5 16 15 8 20 23 30 19 15 21 24 23 17 11 13 13 15 22 19 11 9 6 2 3 23 27 24
17 25 27 20 21 19 15 6 7 15 17 21 20 14 17 20 13 24 13 12 21 24 11 14 18 21 22 27 22 26 23 16 21 18 18 17 20 11 12 8 12 10 10 8 13
15 15 26 26 15 16 9 9 7 13 18 20 19 15 14 19 9 12 16 17 15 20 11 9 15 23 18 22 25 21 23 28 19 19 17 18 7 8 11 12 13 14 11 7 5
15 11 26 18 21 11 8 9 8 14 16 16 16 13 16 18 15 13 15 16 16 20 18 10 9 16 19 11 21 22 23 21 19 18 20 20 22 10 16 15 14 13 13 11 9
14 7 24 26 9 17 8 7 8 16 18 12 15 13 15 17 13 10 12 6 17 18 16 14 7 12 11 16 18 17 13 21 22 15 15 16 18 18 20 17 15 12 13 12 12
14 5 22 17 18 10 8 9 7 15 17 13 13 12 15 14 8 9 11 11 14 13 10 10 6 6 12 6 13 14 19 22 15 21 18 14 6 17 20 16 16 15 15 14 14
12 7 13 18 6 6 8 10 7 12 12 12 12 12 17 11 6 10 12 10 17 9 9 8 5 7 12 8 7 8 6 14 15 20 21 17 9 14 14 16 19 17 16 15 15
9 5 8 15 13 11 11 9 11 9 10 13 7 16 15 14 10 9 12 13 16 8 4 3 4 7 6 11 14 14 11 10 10 11 16 18 23 18 17 16 16 16 15 16 16
10 5 7 4 8 13 11 10 12 14 12 10 9 15 17 15 13 8 15 17 19 8 6 7 6 9 9 15 12 16 16 13 12 15 17 20 20 22 18 14 14 16 16 15 16
7 8 13 12 11 11 6 9 12 12 14 11 13 18 17 15 14 16 18 16 9 10 16 9 8 11 15 11 11 15 16 16 15 12 11 13 11 20 18 16 13 13 14 15 15
9 9 10 12 8 8 8 13 15 15 7 16 18 17 16 15 19 23 24 23 21 19 17 14 6 8 10 1 9 13 13 15 13 9 7 7 13 11 12 11 12 11 12 13 13
Wind_Direction
11 6 1 356 352 347 342 336 328 322 318 311 307 300 296 293 280 282 268 248 245 234 226 210 208 217 221 227 224 227 248 243 244 243 242 150 224 183 250 126 168 189 355 147 161
9 5 0 355 352 348 344 338 332 325 317 312 307 304 302 301 292 278 263 263 246 236 213 203 206 207 216 224 224 231 233 241 246 247 236 224 218 145 210 189 183 161 127 151 160
6 2 359 354 350 347 344 338 332 326 320 312 306 303 305 308 309 275 255 250 243 225 212 212 216 210 219 221 222 218 240 239 246 257 249 256 218 169 211 207 188 185 157 163 167
7 2 358 353 349 346 343 338 332 326 319 311 304 300 304 300 263 303 268 253 238 213 209 214 217 216 223 225 225 227 234 247 260 239 224 257 213 203 220 224 210 192 176 173 175
7 4 359 356 351 346 342 338 330 325 319 312 302 296 297 253 251 280 286 260 229 209 207 212 213 218 223 229 232 229 238 244 245 257 201 239 242 225 205 232 188 203 168 181 184
4 1 358 355 352 349 345 336 329 323 318 311 302 291 263 255 263 260 258 249 208 198 208 211 217 219 232 238 235 230 236 248 246 240 239 232 241 231 226 195 210 180 177 186 188
0 358 355 352 350 348 346 341 333 325 319 312 302 289 252 246 258 262 253 230 218 208 212 212 217 225 228 249 243 245 233 243 244 232 237 222 240 233 218 209 205 194 190 190 191
358 356 354 350 348 346 345 340 335 332 324 320 314 237 256 273 265 255 244 240 223 222 219 218 221 238 228 231 247 225 240 241 228 229 223 226 232 224 209 212 199 199 195 194 192
357 356 354 350 349 350 348 346 341 334 336 330 9 261 274 284 270 270 242 228 226 219 219 220 218 226 225 234 226 209 227 225 242 206 217 221 232 234 217 215 203 201 196 195 191
354 355 357 354 353 352 357 360 339 354 3 323 271 275 268 313 310 284 251 225 223 215 212 210 210 220 225 213 218 213 219 236 217 218 205 224 229 238 236 220 198 202 203 192 192
354 354 358 357 355 360 10 3 9 310 328 274 289 282 289 291 277 290 250 219 214 211 211 204 210 215 213 217 229 233 219 225 235 210 197 224 235 219 234 228 201 211 190 204 193
354 353 355 357 1 7 11 29 0 310 304 301 285 289 302 306 275 264 252 212 207 213 207 201 221 218 219 220 228 240 247 226 234 188 216 225 230 236 220 236 211 207 187 195 196
355 353 354 360 5 2 6 2 343 331 276 320 6 324 328 318 299 264 251 216 214 219 209 217 216 218 223 227 222 228 223 233 230 192 212 244 242 222 229 221 217 222 202 190 196
0 5 358 3 9 358 355 341 338 328 278 10 19 1 329 316 270 273 239 231 229 220 226 222 224 207 221 224 217 224 216 236 225 215 219 206 237 211 225 222 216 206 222 195 188
5 3 3 9 354 350 329 331 329 332 329 338 355 346 336 333 341 18 245 233 233 227 222 228 224 209 219 218 220 229 210 220 233 233 241 221 225 249 199 219 204 200 205 222 193
6 8 9 6 355 334 336 334 325 265 349 335 349 4 6 346 337 328 226 238 260 244 243 242 221 238 220 225 222 220 236 201 231 230 230 234 211 237 228 200 214 213 196 200 205
6 13 9 358 341 352 340 324 311 34 344 349 344 11 18 346 344 351 87 60 26 288 243 223 233 212 214 220 214 214 214 198 205 212 224 215 229 228 55 75 65 300 211 183 199
3 20 355 0 359 354 339 293 41 357 356 342 335 5 28 8 356 350 15 31 30 5 323 234 219 199 221 225 204 204 204 208 203 212 213 237 208 195 119 111 104 74 54 72 189
9 13 3 10 22 6 339 49 31 349 336 340 344 358 9 17 359 0 7 18 16 9 354 344 251 190 206 222 222 197 215 222 233 233 217 193 140 97 140 129 116 110 108 103 84
11 3 7 16 21 5 58 60 38 4 337 341 4 8 2 11 9 12 5 31 357 357 337 331 300 288 182 223 229 227 211 220 235 235 219 208 188 178 169 147 131 127 118 112 104
2 8 0 27 19 43 46 54 358 5 352 6 357 346 350 1 23 12 21 40 6 348 352 350 297 314 283 201 216 216 229 231 240 225 229 231 201 151 154 145 133 120 115 109 99
7 28 357 7 51 18 34 16 338 356 3 1 7 354 346 356 349 17 6 17 13 11 357 5 310 284 294 356 307 295 225 235 229 215 242 247 83 105 120 126 125 120 114 107 103
357 353 1 25 32 12 19 14 17 3 11 354 5 354 346 346 343 19 2 21 357 4 13 350 346 301 250 242 240 268 272 323 296 240 229 230 146 128 126 130 129 125 116 106 102
357 351 347 26 13 359 356 360 1 17 347 352 341 357 349 336 352 305 346 344 336 37 349 16 310 318 315 325 320 307 332 331 306 252 228 245 132 152 149 139 129 120 111 104 97
16 350 358 347 356 342 11 352 351 1 350 347 336 354 341 327 327 327 339 332 332 139 332 352 279 283 297 302 294 302 302 298 287 259 244 239 167 161 151 132 118 116 111 101 92
23 355 338 301 323 327 13 341 340 346 333 330 328 333 323 316 332 327 327 318 310 315 320 320 284 297 285 263 279 288 285 279 283 295 294 292 48 118 109 127 122 112 107 97 86
9 348 321 302 327 329 348 326 320 319 307 320 320 316 315 337 323 308 297 285 276 282 290 290 278 303 289 270 283 281 254 248 259 280 298 280 152 142 141 131 123 111 99 90 81